• In Hungary
  • List of Countries
  • For 7 days
  • Water Temperature
  • Satellite Maps
  • Weather Map
  • News
  • Weather Widgets
  • user-avatar
    Login

    Hourly Weather Chumaky

    Today, 17 October, Wednesday

    Time Temperature Precipitation Wind Pressure Humidity
    00:00 +16°C° 0 mm 3 mps 757 mmHg 64%
    01:00 +16°C° 0 mm 3 mps 757 mmHg 67%
    02:00 +14°C° 0 mm 3 mps 757 mmHg 69%
    03:00 +15°C° 0 mm 2 mps 757 mmHg 72%
    04:00 +14°C° 0 mm 3 mps 756 mmHg 75%
    05:00 +13°C° 0 mm 3 mps 756 mmHg 77%
    06:00 +13°C° 0 mm 3 mps 756 mmHg 79%
    07:00 +14°C° 0 mm 3 mps 756 mmHg 74%
    08:00 +16°C° 0 mm 3 mps 756 mmHg 69%
    09:00 +17°C° 0 mm 3 mps 756 mmHg 64%
    10:00 +19°C° 0 mm 4 mps 756 mmHg 56%
    11:00 +21°C° 0 mm 4 mps 756 mmHg 49%
    12:00 +22°C° 0 mm 4 mps 756 mmHg 42%
    13:00 +23°C° 0 mm 4 mps 756 mmHg 39%
    14:00 +23°C° 0 mm 4 mps 756 mmHg 37%
    15:00 +25°C° 0 mm 4 mps 755 mmHg 34%
    16:00 +24°C° 0 mm 3 mps 755 mmHg 38%
    17:00 +21°C° 0 mm 3 mps 755 mmHg 41%
    18:00 +20°C° 0 mm 3 mps 755 mmHg 45%
    19:00 +19°C° 0 mm 3 mps 755 mmHg 47%
    20:00 +19°C° 0 mm 3 mps 755 mmHg 50%
    21:00 +18°C° 0 mm 3 mps 755 mmHg 52%
    22:00 +17°C° 0 mm 3 mps 755 mmHg 54%
    23:00 +17°C° 0 mm 3 mps 755 mmHg 56%

    Tomorrow, 18 October, Thursday

    Time Temperature Precipitation Wind Pressure Humidity
    00:00 +16°C° 0 mm 2 mps 755 mmHg 57%
    01:00 +16°C° 0 mm 2 mps 755 mmHg 58%
    02:00 +16°C° 0 mm 2 mps 755 mmHg 60%
    03:00 +15°C° 0 mm 2 mps 755 mmHg 61%
    04:00 +15°C° 0 mm 2 mps 754 mmHg 62%
    05:00 +13°C° 0 mm 3 mps 754 mmHg 62%
    06:00 +13°C° 0 mm 3 mps 754 mmHg 63%
    07:00 +14°C° 0 mm 3 mps 754 mmHg 59%
    08:00 +16°C° 0 mm 3 mps 754 mmHg 55%
    09:00 +17°C° 0 mm 4 mps 754 mmHg 51%
    10:00 +19°C° 0 mm 4 mps 754 mmHg 46%
    11:00 +21°C° 0 mm 4 mps 754 mmHg 41%
    12:00 +23°C° 0 mm 4 mps 754 mmHg 36%
    13:00 +23°C° 0 mm 4 mps 754 mmHg 34%
    14:00 +25°C° 0 mm 5 mps 753 mmHg 33%
    15:00 +25°C° 0 mm 5 mps 753 mmHg 32%
    16:00 +23°C° 0 mm 4 mps 753 mmHg 35%
    17:00 +21°C° 0 mm 4 mps 752 mmHg 38%
    18:00 +20°C° 0 mm 3 mps 752 mmHg 41%
    19:00 +19°C° 0 mm 4 mps 752 mmHg 43%
    20:00 +19°C° 0 mm 4 mps 752 mmHg 45%
    21:00 +18°C° 0 mm 4 mps 752 mmHg 47%
    22:00 +17°C° 0 mm 4 mps 752 mmHg 49%
    23:00 +17°C° 0 mm 4 mps 752 mmHg 51%

    Day after tomorrow, 19 October, Friday

    Time Temperature Precipitation Wind Pressure Humidity
    00:00 +15°C° 0 mm 4 mps 752 mmHg 53%
    01:00 +14°C° 0 mm 4 mps 752 mmHg 54%
    02:00 +14°C° 0 mm 3 mps 752 mmHg 56%
    03:00 +14°C° 0 mm 3 mps 752 mmHg 58%
    04:00 +13°C° 0 mm 4 mps 752 mmHg 60%
    05:00 +13°C° 0 mm 4 mps 751 mmHg 61%
    06:00 +12°C° 0 mm 4 mps 751 mmHg 63%
    07:00 +13°C° 0 mm 4 mps 751 mmHg 61%
    08:00 +14°C° 0 mm 5 mps 751 mmHg 59%
    09:00 +15°C° 0 mm 5 mps 751 mmHg 57%
    10:00 +17°C° 0 mm 5 mps 751 mmHg 52%
    11:00 +19°C° 0 mm 5 mps 751 mmHg 46%
    12:00 +21°C° 0 mm 5 mps 750 mmHg 40%
    13:00 +21°C° 0 mm 5 mps 750 mmHg 39%
    14:00 +22°C° 0 mm 5 mps 750 mmHg 37%
    15:00 +22°C° 0 mm 5 mps 749 mmHg 36%
    16:00 +21°C° 0 mm 4 mps 749 mmHg 40%
    17:00 +20°C° 0 mm 3 mps 749 mmHg 44%
    18:00 +19°C° 0 mm 3 mps 749 mmHg 49%
    19:00 +18°C° 0 mm 3 mps 749 mmHg 52%
    20:00 +17°C° 0 mm 3 mps 749 mmHg 55%
    21:00 +17°C° 0 mm 3 mps 748 mmHg 58%
    22:00 +16°C° 0 mm 3 mps 748 mmHg 61%
    23:00 +16°C° 0 mm 3 mps 748 mmHg 64%

    20 October, Saturday

    Time Temperature Precipitation Wind Pressure Humidity
    00:00 +16°C° 0 mm 2 mps 748 mmHg 67%
    01:00 +15°C° 0 mm 2 mps 748 mmHg 69%
    02:00 +15°C° 0 mm 2 mps 748 mmHg 72%
    03:00 +14°C° 0 mm 2 mps 748 mmHg 74%
    04:00 +14°C° 0.1 mm 2 mps 748 mmHg 76%
    05:00 +14°C° 0.1 mm 2 mps 748 mmHg 78%
    06:00 +14°C° 0.1 mm 2 mps 748 mmHg 79%
    07:00 +14°C° 0 mm 2 mps 748 mmHg 77%
    08:00 +15°C° 0 mm 2 mps 748 mmHg 74%
    09:00 +16°C° 0 mm 2 mps 748 mmHg 72%
    10:00 +18°C° 0 mm 1 mps 748 mmHg 65%
    11:00 +20°C° 0 mm 1 mps 748 mmHg 59%
    12:00 +21°C° 0 mm 1 mps 748 mmHg 53%
    13:00 +21°C° 0 mm 2 mps 748 mmHg 51%
    14:00 +21°C° 0 mm 2 mps 748 mmHg 48%
    15:00 +23°C° 0 mm 2 mps 748 mmHg 46%
    16:00 +21°C° 0 mm 2 mps 748 mmHg 50%
    17:00 +19°C° 0 mm 2 mps 748 mmHg 55%
    18:00 +18°C° 0 mm 2 mps 748 mmHg 59%
    19:00 +17°C° 0 mm 2 mps 748 mmHg 64%
    20:00 +17°C° 0 mm 2 mps 748 mmHg 69%
    21:00 +16°C° 0 mm 2 mps 748 mmHg 74%
    22:00 +15°C° 0 mm 2 mps 748 mmHg 77%
    23:00 +15°C° 0 mm 2 mps 748 mmHg 81%

    21 October, Sunday

    Time Temperature Precipitation Wind Pressure Humidity
    00:00 +14°C° 0 mm 2 mps 748 mmHg 84%
    01:00 +14°C° 0 mm 2 mps 748 mmHg 86%
    02:00 +14°C° 0 mm 2 mps 748 mmHg 87%
    03:00 +14°C° 0 mm 2 mps 748 mmHg 89%
    04:00 +13°C° 0 mm 2 mps 748 mmHg 90%
    05:00 +13°C° 0 mm 2 mps 748 mmHg 91%
    06:00 +13°C° 0 mm 2 mps 748 mmHg 92%
    07:00 +12°C° 0 mm 3 mps 748 mmHg 89%
    08:00 +13°C° 0 mm 3 mps 748 mmHg 85%
    09:00 +14°C° 0 mm 3 mps 748 mmHg 81%
    10:00 +16°C° 0 mm 3 mps 748 mmHg 75%
    11:00 +17°C° 0 mm 3 mps 748 mmHg 68%
    12:00 +19°C° 0 mm 3 mps 748 mmHg 62%
    13:00 +19°C° 0 mm 3 mps 748 mmHg 60%
    14:00 +19°C° 0 mm 3 mps 748 mmHg 59%
    15:00 +19°C° 0 mm 3 mps 748 mmHg 58%
    16:00 +19°C° 0 mm 3 mps 748 mmHg 60%
    17:00 +18°C° 0 mm 3 mps 748 mmHg 62%
    18:00 +18°C° 0 mm 3 mps 748 mmHg 64%
    19:00 +17°C° 0 mm 3 mps 748 mmHg 66%
    20:00 +17°C° 0 mm 3 mps 748 mmHg 68%
    21:00 +16°C° 0 mm 3 mps 749 mmHg 69%
    22:00 +16°C° 0 mm 3 mps 749 mmHg 72%
    23:00 +14°C° 0 mm 3 mps 749 mmHg 75%

    22 October, Monday

    Time Temperature Precipitation Wind Pressure Humidity
    00:00 +13°C° 0 mm 3 mps 749 mmHg 78%
    01:00 +13°C° 0 mm 3 mps 749 mmHg 79%
    02:00 +13°C° 0 mm 3 mps 749 mmHg 81%
    03:00 +12°C° 0 mm 4 mps 749 mmHg 83%
    04:00 +12°C° 0 mm 3 mps 749 mmHg 85%
    05:00 +12°C° 0 mm 3 mps 749 mmHg 87%
    06:00 +11°C° 0 mm 3 mps 749 mmHg 90%
    07:00 +12°C° 0 mm 3 mps 749 mmHg 87%
    08:00 +13°C° 0 mm 3 mps 750 mmHg 85%
    09:00 +13°C° 0 mm 3 mps 750 mmHg 82%
    10:00 +14°C° 0 mm 3 mps 750 mmHg 78%
    11:00 +16°C° 0 mm 3 mps 750 mmHg 73%
    12:00 +18°C° 0 mm 3 mps 750 mmHg 68%
    13:00 +18°C° 0.1 mm 3 mps 750 mmHg 68%
    14:00 +18°C° 0.1 mm 3 mps 750 mmHg 67%
    15:00 +18°C° 0.1 mm 2 mps 750 mmHg 67%
    16:00 +17°C° 0 mm 2 mps 750 mmHg 70%
    17:00 +16°C° 0 mm 2 mps 750 mmHg 73%
    18:00 +16°C° 0 mm 2 mps 750 mmHg 76%
    19:00 +15°C° 0 mm 2 mps 750 mmHg 79%
    20:00 +15°C° 0 mm 2 mps 750 mmHg 81%
    21:00 +15°C° 0 mm 2 mps 750 mmHg 83%
    22:00 +14°C° 0 mm 2 mps 750 mmHg 85%
    23:00 +14°C° 0 mm 1 mps 750 mmHg 87%
    Show more